Home > Weather > St Helens > Past weeks

Flag for United Kingdom Past Weather in St Helens, England, United Kingdom — Yesterday and Last 2 Weeks

Now
70 °F

Passing clouds.


Feels Like: 70 °F
Forecast: 59 / 67 °F
Wind: 5 mph from West

Location: Liverpool Airport

Current Time: Jul 23, 2016 at 6:13:20 PM

Latest Report: Jul 23, 2016 at 5:20 PM


Visibility: N/A

Pressure: 30.09 "Hg

Humidity: 64%

Dew Point: 57 °F

Location of St HelensLocation

Past Weather in St Helens — Graph

°F

St Helens Temperature Yesterday

Maximum temperature yesterday: 72 °F (at 11:20 AM)
Minimum temperature yesterday: 59 °F (at 6:20 AM)
Average temperature yesterday: 65 °F

High & Low Weather Summary for the Past Weeks

 TemperatureHumidityPressure
High86 °F (Jul 19, 5:20 PM)100% (Jul 9, 10:20 AM)30.30 "Hg (Jul 9, 10:20 AM)
Low52 °F (Jul 13, 2:50 AM)45% (Jul 19, 2:50 PM)29.47 "Hg (Jul 11, 2:50 AM)
Average64 °F80%30.00 "Hg
* Reported Jul 8 4:20 PM — Jul 23 4:50 PM, St Helens, Weather by CustomWeather, © 2016

Note: Actual official high and low records may vary slightly from our data, if they occured in-between our weather recording intervals... More about our weather records

Advertising

St Helens Weather History for the Previous 24 Hours

Scroll right to see more
 ConditionsComfort  
Time TempWeatherWind HumidityBarometerVisibility
4:50 PM
Sat, Jul 23
70 °FPassing clouds.9 mph64%30.09 "HgN/A
4:20 PM70 °FScattered clouds.13 mph64%30.09 "HgN/A
3:50 PM70 °FScattered clouds.7 mph64%30.09 "HgN/A
3:20 PM70 °FScattered clouds.6 mph60%30.09 "HgN/A
2:50 PM70 °FScattered clouds.5 mph64%30.09 "HgN/A
2:20 PM70 °FScattered clouds.2 mph60%30.12 "HgN/A
1:50 PM72 °FScattered clouds.3 mph61%30.12 "HgN/A
1:20 PM70 °FScattered clouds.2 mph60%30.12 "HgN/A
11:50 AM68 °FScattered clouds.5 mph64%30.12 "HgN/A
9:50 AM64 °FPassing clouds.2 mph78%30.12 "Hg6 mi
9:20 AM63 °FScattered clouds.3 mph88%30.12 "Hg6 mi
8:50 AM63 °FScattered clouds.5 mph88%30.12 "Hg6 mi
8:20 AM63 °FScattered clouds.3 mph88%30.12 "Hg6 mi
7:50 AM63 °FScattered clouds.1 mph88%30.12 "HgN/A
7:20 AM61 °FScattered clouds.1 mph94%30.12 "HgN/A
6:50 AM61 °FScattered clouds.No wind94%30.12 "HgN/A
6:20 AM61 °FScattered clouds.No wind94%30.12 "HgN/A
5:50 AM59 °FPassing clouds.1 mph94%30.12 "HgN/A
5:20 AM59 °FPassing clouds.1 mph94%30.12 "Hg4 mi
4:50 AM57 °FPassing clouds.2 mph100%30.12 "Hg4 mi
4:20 AM57 °FPassing clouds.3 mph94%30.12 "HgN/A
3:50 AM57 °FPassing clouds.1 mph94%30.12 "HgN/A
3:20 AM57 °FPassing clouds.2 mph94%30.12 "HgN/A
2:50 AM59 °FPassing clouds.5 mph94%30.12 "HgN/A
2:20 AM59 °FPassing clouds.2 mph94%30.12 "HgN/A
1:50 AM59 °FPassing clouds.3 mph94%30.12 "HgN/A
1:20 AM59 °FPassing clouds.7 mph94%30.12 "HgN/A
12:50 AM59 °FPassing clouds.5 mph94%30.12 "HgN/A
12:20 AM61 °FPassing clouds.7 mph94%30.12 "HgN/A
11:50 PM
Fri, Jul 22
61 °FPassing clouds.3 mph88%30.12 "HgN/A
11:20 PM61 °FPassing clouds.1 mph88%30.12 "HgN/A
10:50 PM63 °FPassing clouds.7 mph88%30.12 "HgN/A
10:20 PM61 °FSunny.6 mph94%30.12 "Hg10 mi
9:50 PM63 °FSunny.6 mph88%30.12 "Hg10 mi
9:20 PM61 °FPassing clouds.7 mph94%30.12 "HgN/A
8:50 PM63 °FScattered showers. Scattered clouds.7 mph88%30.12 "HgN/A
8:20 PM63 °FScattered showers. Scattered clouds.7 mph94%30.09 "HgN/A
7:50 PM63 °FScattered showers. Scattered clouds.9 mph94%30.09 "HgN/A
7:20 PM63 °FSprinkles. Scattered clouds.12 mph94%30.09 "Hg4 mi
6:50 PM64 °FSprinkles. Scattered clouds.9 mph94%30.09 "Hg4 mi
6:20 PM64 °FSprinkles. Scattered clouds.8 mph88%30.09 "Hg6 mi
Weather by CustomWeather, © 2016

See weather overviewHow to use our weather pages